TimeBST,TemperatureF,Dew PointF,Humidity,Sea Level PressureIn,VisibilityMPH,Wind Direction,Wind SpeedMPH,Gust SpeedMPH,PrecipitationIn,Events,Conditions,WindDirDegrees,DateUTC
12:20 AM,55.4,53.6,94,30.21,6.2,NNE,4.6,-,N/A,,Mostly Cloudy,30,2012-10-23 23:20:00
12:50 AM,55,55,100,,,NE,3.5,,,,,50,2012-10-23 23:50:00
12:50 AM,55.4,53.6,94,30.18,6.2,NNE,4.6,-,N/A,,Mostly Cloudy,30,2012-10-23 23:50:00
3:50 AM,55,55,100,,,ENE,4.6,,,,,70,2012-10-24 02:50:00
6:20 AM,55.4,53.6,94,30.09,5.0,NE,5.8,-,N/A,,Mostly Cloudy,40,2012-10-24 05:20:00
6:50 AM,55,55,100,,,ENE,5.8,,,,,60,2012-10-24 05:50:00
6:50 AM,55.4,53.6,94,30.09,5.0,NE,5.8,-,N/A,,Mostly Cloudy,40,2012-10-24 05:50:00
7:20 AM,55.4,53.6,94,30.09,3.7,NE,5.8,-,N/A,,Light Drizzle,40,2012-10-24 06:20:00
8:20 AM,55.4,51.8,88,30.09,3.7,ENE,6.9,-,N/A,,Mostly Cloudy,60,2012-10-24 07:20:00
8:50 AM,55.4,51.8,88,30.09,4.3,ENE,6.9,-,N/A,,Mostly Cloudy,60,2012-10-24 07:50:00
9:20 AM,55.4,51.8,88,30.09,5.0,NE,4.6,-,N/A,,Mostly Cloudy,50,2012-10-24 08:20:00
9:50 AM,55,53,91,,,ENE,5.8,,,,,70,2012-10-24 08:50:00
9:50 AM,55.4,51.8,88,30.09,5.0,ENE,6.9,-,N/A,,Mostly Cloudy,60,2012-10-24 08:50:00
10:20 AM,55.4,51.8,88,30.09,5.0,ENE,9.2,-,N/A,,Mostly Cloudy,60,2012-10-24 09:20:00
10:50 AM,-9999,-9999,N/A,-9999,5.0,ENE,10.4,-,N/A,,Unknown,60,2012-10-24 09:50:00
11:20 AM,53.6,51.8,94,30.09,3.7,NE,9.2,-,N/A,,Mostly Cloudy,50,2012-10-24 10:20:00
11:50 AM,53.6,51.8,94,30.09,3.1,ENE,9.2,-,N/A,,Mostly Cloudy,60,2012-10-24 10:50:00
12:20 PM,53.6,51.8,94,30.09,3.1,ENE,11.5,-,N/A,,Mostly Cloudy,70,2012-10-24 11:20:00
12:50 PM,55,54,98,,,East,5.8,,,,,80,2012-10-24 11:50:00
12:50 PM,55.4,51.8,88,30.06,2.5,ENE,8.1,-,N/A,,Mostly Cloudy,70,2012-10-24 11:50:00
1:20 PM,55.4,53.6,94,30.06,2.5,ENE,8.1,-,N/A,,Mostly Cloudy,60,2012-10-24 12:20:00
1:50 PM,55.4,53.6,94,30.06,3.1,ENE,8.1,-,N/A,,Mostly Cloudy,60,2012-10-24 12:50:00
2:20 PM,55.4,53.6,94,30.04,3.1,NE,6.9,-,N/A,,Mostly Cloudy,50,2012-10-24 13:20:00
2:50 PM,55.4,53.6,94,30.04,3.1,NE,8.1,-,N/A,,Mostly Cloudy,50,2012-10-24 13:50:00
3:20 PM,55.4,53.6,94,30.01,3.1,NE,5.8,-,N/A,,Mostly Cloudy,50,2012-10-24 14:20:00
3:50 PM,57,56,93,,,ENE,5.8,,,,,70,2012-10-24 14:50:00
3:50 PM,57.2,53.6,88,30.01,4.3,NE,6.9,-,N/A,,Mostly Cloudy,40,2012-10-24 14:50:00
4:20 PM,57.2,53.6,88,30.01,4.3,NE,6.9,-,N/A,,Mostly Cloudy,40,2012-10-24 15:20:00
4:50 PM,57.2,53.6,88,30.01,4.3,NE,9.2,-,N/A,,Mostly Cloudy,50,2012-10-24 15:50:00
5:20 PM,57.2,53.6,88,29.98,3.7,NE,10.4,-,N/A,,Mostly Cloudy,50,2012-10-24 16:20:00
5:50 PM,57.2,53.6,88,29.98,3.1,NE,9.2,-,N/A,,Haze,40,2012-10-24 16:50:00
6:20 PM,57.2,53.6,88,29.98,3.7,NE,9.2,-,N/A,,Mostly Cloudy,50,2012-10-24 17:20:00
6:50 PM,58,56,90,,,NE,5.8,,,,,50,2012-10-24 17:50:00
6:50 PM,57.2,53.6,88,29.98,4.3,NE,6.9,-,N/A,,Mostly Cloudy,40,2012-10-24 17:50:00
7:20 PM,57.2,53.6,88,29.98,3.7,NE,8.1,-,N/A,,Mostly Cloudy,40,2012-10-24 18:20:00
7:50 PM,57.2,53.6,88,29.98,3.7,NE,10.4,-,N/A,,Mostly Cloudy,50,2012-10-24 18:50:00
8:20 PM,57.2,53.6,88,29.98,3.7,NE,10.4,-,N/A,,Mostly Cloudy,50,2012-10-24 19:20:00
8:50 PM,57.2,53.6,88,29.98,3.7,ENE,11.5,-,N/A,,Mostly Cloudy,60,2012-10-24 19:50:00
9:20 PM,57.2,53.6,88,29.98,3.7,ENE,9.2,-,N/A,,Mostly Cloudy,60,2012-10-24 20:20:00
9:50 PM,58,56,89,,,NE,6.9,,,,,50,2012-10-24 20:50:00
9:50 PM,57.2,53.6,88,29.98,3.7,NE,9.2,-,N/A,,Mostly Cloudy,50,2012-10-24 20:50:00
10:20 PM,57.2,53.6,88,29.98,3.7,ENE,10.4,-,N/A,,Mostly Cloudy,60,2012-10-24 21:20:00
10:50 PM,57.2,53.6,88,29.98,3.7,ENE,9.2,-,N/A,,Mostly Cloudy,60,2012-10-24 21:50:00
11:20 PM,57.2,53.6,88,29.98,3.7,ENE,8.1,-,N/A,,Mostly Cloudy,70,2012-10-24 22:20:00
11:50 PM,57.2,53.6,88,29.98,3.7,ENE,9.2,-,N/A,,Mostly Cloudy,60,2012-10-24 22:50:00